Torna al catalogo

NOAA 16 DEB

AttivoPO
NORAD 41270·DEBRIS·🇺🇸 United States

Lanciato Sep 21, 2000 da Vandenberg Space Force Base

Loading…

Prossimi Passaggi (prossime 24 ore)

TLE

AggiornatoSource: Space-Track

Epoca: Sep 14, 2026, 03:55 UTC

1 41270U 00055FW  26257.16376277  .00005082  00000-0  16644-2 0  9993
2 41270  98.9788  37.4966 0017931 332.5054  27.5182 14.38809563553660

Traccia NOAA 16 DEB in tempo reale con AllMySat

Download on the App Store